Time,TemperatureF,DewpointF,PressureIn,WindDirection,WindDirectionDegrees,WindSpeedMPH,WindSpeedGustMPH,Humidity,HourlyPrecipIn,Conditions,Clouds,dailyrainin,SoftwareType,DateUTC
2013-09-08 00:02:00,64.2,54.3,29.88,WNW,283,0.0,0.0,70,0.00,,,0.00,meteobridge,2013-09-08 04:02:00,
2013-09-08 00:04:00,64.2,54.3,29.88,WNW,283,0.0,0.0,70,0.00,,,0.00,meteobridge,2013-09-08 04:04:00,
2013-09-08 00:08:00,64.2,54.3,29.88,WNW,284,0.0,0.0,70,0.00,,,0.00,meteobridge,2013-09-08 04:08:00,
2013-09-08 00:12:00,64.2,54.3,29.88,WNW,284,0.0,0.0,70,0.00,,,0.00,meteobridge,2013-09-08 04:12:00,
2013-09-08 00:14:00,64.2,54.3,29.88,WNW,283,0.0,0.0,70,0.00,,,0.00,meteobridge,2013-09-08 04:14:00,
2013-09-08 00:20:00,64.0,54.9,29.88,WNW,284,0.0,0.0,72,0.00,,,0.00,meteobridge,2013-09-08 04:20:00,
2013-09-08 00:27:00,63.9,54.7,29.88,WNW,284,0.0,0.0,72,0.00,,,0.00,meteobridge,2013-09-08 04:27:00,
2013-09-08 00:33:00,63.7,55.2,29.88,WNW,284,0.0,0.0,74,0.00,,,0.00,meteobridge,2013-09-08 04:33:00,
2013-09-08 00:39:00,63.3,55.6,29.88,WNW,301,0.0,0.0,76,0.00,,,0.00,meteobridge,2013-09-08 04:39:00,
2013-09-08 00:45:00,62.8,56.1,29.89,WNW,300,0.0,0.0,79,0.00,,,0.00,meteobridge,2013-09-08 04:45:00,
2013-09-08 00:51:00,62.1,56.1,29.88,NW,315,0.0,0.0,81,0.00,,,0.00,meteobridge,2013-09-08 04:51:00,
2013-09-08 00:54:00,61.9,55.9,29.88,NNW,330,0.0,0.0,81,0.00,,,0.00,meteobridge,2013-09-08 04:54:00,
2013-09-08 01:00:00,61.5,55.6,29.88,NNW,328,0.0,0.0,81,0.00,,,0.00,meteobridge,2013-09-08 05:00:00,
2013-09-08 01:08:00,61.3,55.4,29.88,North,1,0.0,0.0,81,0.00,,,0.00,meteobridge,2013-09-08 05:08:00,
2013-09-08 01:14:00,61.3,55.8,29.88,North,1,0.0,0.0,82,0.00,,,0.00,meteobridge,2013-09-08 05:14:00,
2013-09-08 01:20:00,61.3,55.8,29.88,NW,311,0.0,0.0,82,0.00,,,0.00,meteobridge,2013-09-08 05:20:00,
2013-09-08 01:27:00,61.3,56.1,29.87,NW,311,0.0,0.0,83,0.00,,,0.00,meteobridge,2013-09-08 05:27:00,
2013-09-08 01:33:00,61.2,55.9,29.87,NW,310,0.0,0.0,83,0.00,,,0.00,meteobridge,2013-09-08 05:33:00,
2013-09-08 01:40:00,61.2,56.3,29.87,NW,311,0.0,0.0,84,0.00,,,0.00,meteobridge,2013-09-08 05:40:00,
2013-09-08 01:46:00,61.2,55.9,29.86,NW,311,0.0,0.0,83,0.00,,,0.00,meteobridge,2013-09-08 05:46:00,
2013-09-08 01:52:00,61.2,55.9,29.86,NW,311,0.0,0.0,83,0.00,,,0.00,meteobridge,2013-09-08 05:52:00,
2013-09-08 01:58:00,61.3,56.1,29.86,NW,310,0.0,0.0,83,0.00,,,0.00,meteobridge,2013-09-08 05:58:00,
2013-09-08 02:04:00,61.3,56.1,29.86,NW,311,0.0,0.0,83,0.00,,,0.00,meteobridge,2013-09-08 06:04:00,
2013-09-08 02:10:00,61.5,55.9,29.86,NW,310,0.0,0.0,82,0.00,,,0.00,meteobridge,2013-09-08 06:10:00,
2013-09-08 02:19:00,61.5,55.6,29.85,NW,311,0.0,0.0,81,0.00,,,0.00,meteobridge,2013-09-08 06:19:00,
2013-09-08 02:25:00,61.5,55.9,29.85,NW,311,0.0,0.0,82,0.00,,,0.00,meteobridge,2013-09-08 06:25:00,
2013-09-08 02:31:00,61.5,55.9,29.85,NW,310,0.0,0.0,82,0.00,,,0.00,meteobridge,2013-09-08 06:31:00,
2013-09-08 02:39:00,61.3,56.1,29.85,WNW,300,0.0,0.0,83,0.00,,,0.00,meteobridge,2013-09-08 06:39:00,
2013-09-08 02:48:00,61.3,55.8,29.85,WNW,297,0.0,0.0,82,0.00,,,0.00,meteobridge,2013-09-08 06:48:00,
2013-09-08 02:55:00,61.5,55.9,29.85,NW,319,0.0,0.0,82,0.00,,,0.00,meteobridge,2013-09-08 06:55:00,
2013-09-08 03:01:00,61.9,56.3,29.85,NW,319,0.0,0.0,82,0.00,,,0.00,meteobridge,2013-09-08 07:01:00,
2013-09-08 03:09:00,61.9,56.3,29.84,NW,319,0.0,0.0,82,0.00,,,0.00,meteobridge,2013-09-08 07:09:00,
2013-09-08 03:15:00,62.1,56.1,29.84,NW,317,0.0,0.0,81,0.00,,,0.00,meteobridge,2013-09-08 07:15:00,
2013-09-08 03:22:00,62.2,56.3,29.83,NW,317,0.0,0.0,81,0.00,,,0.00,meteobridge,2013-09-08 07:22:00,
2013-09-08 03:28:00,62.4,56.1,29.83,NW,315,0.0,0.0,80,0.00,,,0.00,meteobridge,2013-09-08 07:28:00,
2013-09-08 03:34:00,62.6,55.9,29.83,NW,315,0.0,0.0,79,0.00,,,0.00,meteobridge,2013-09-08 07:34:00,
2013-09-08 03:41:00,62.8,56.1,29.82,NW,326,0.0,0.0,79,0.00,,,0.00,meteobridge,2013-09-08 07:41:00,
2013-09-08 03:49:00,62.6,55.9,29.82,NW,322,0.0,0.9,79,0.00,,,0.00,meteobridge,2013-09-08 07:49:00,
2013-09-08 03:56:00,62.2,55.9,29.82,NNW,340,0.0,0.9,80,0.00,,,0.00,meteobridge,2013-09-08 07:56:00,
2013-09-08 04:04:00,61.7,56.1,29.82,North,349,0.0,0.9,82,0.00,,,0.00,meteobridge,2013-09-08 08:04:00,
2013-09-08 04:10:00,61.3,56.1,29.82,NNW,328,0.0,0.9,83,0.00,,,0.00,meteobridge,2013-09-08 08:10:00,
2013-09-08 04:19:00,61.0,56.1,29.82,NNW,333,0.0,0.9,84,0.00,,,0.00,meteobridge,2013-09-08 08:19:00,
2013-09-08 04:25:00,60.6,56.1,29.83,NNW,335,0.9,0.9,85,0.00,,,0.00,meteobridge,2013-09-08 08:25:00,
2013-09-08 04:31:00,60.4,55.9,29.82,NW,323,0.0,0.0,85,0.00,,,0.00,meteobridge,2013-09-08 08:31:00,
2013-09-08 04:38:00,60.4,55.9,29.82,North,1,0.0,0.9,85,0.00,,,0.00,meteobridge,2013-09-08 08:38:00,
2013-09-08 04:44:00,60.3,55.8,29.82,North,1,0.0,0.9,85,0.00,,,0.00,meteobridge,2013-09-08 08:44:00,
2013-09-08 04:50:00,60.1,55.6,29.82,North,354,0.0,0.0,85,0.00,,,0.00,meteobridge,2013-09-08 08:50:00,
2013-09-08 04:57:00,60.1,55.6,29.82,North,352,0.0,0.0,85,0.00,,,0.00,meteobridge,2013-09-08 08:57:00,
2013-09-08 05:03:00,59.9,55.4,29.81,WNW,294,0.0,0.9,85,0.00,,,0.00,meteobridge,2013-09-08 09:03:00,
2013-09-08 05:09:00,60.1,55.6,29.81,WNW,294,0.0,0.0,85,0.00,,,0.00,meteobridge,2013-09-08 09:09:00,
2013-09-08 05:16:00,60.3,55.4,29.82,NW,313,0.0,0.0,84,0.00,,,0.00,meteobridge,2013-09-08 09:16:00,
2013-09-08 05:22:00,60.4,55.6,29.82,NW,320,0.0,0.0,84,0.00,,,0.00,meteobridge,2013-09-08 09:22:00,
2013-09-08 05:28:00,60.4,55.6,29.82,NW,319,0.0,0.0,84,0.00,,,0.00,meteobridge,2013-09-08 09:28:00,
2013-09-08 05:34:00,60.4,55.9,29.81,WNW,293,0.0,0.0,85,0.00,,,0.00,meteobridge,2013-09-08 09:34:00,
2013-09-08 05:40:00,60.4,55.9,29.81,WSW,257,0.0,2.0,85,0.00,,,0.00,meteobridge,2013-09-08 09:40:00,
2013-09-08 05:49:00,61.0,56.1,29.80,WNW,295,2.0,2.0,84,0.00,,,0.00,meteobridge,2013-09-08 09:49:00,
2013-09-08 05:55:00,61.3,56.1,29.80,West,269,0.0,0.9,83,0.00,,,0.00,meteobridge,2013-09-08 09:55:00,
2013-09-08 06:01:00,61.3,56.1,29.80,NW,321,0.0,0.0,83,0.00,,,0.00,meteobridge,2013-09-08 10:01:00,
2013-09-08 06:10:00,61.0,56.1,29.80,NW,321,0.0,0.0,84,0.00,,,0.00,meteobridge,2013-09-08 10:10:00,
2013-09-08 06:29:00,60.1,55.9,29.81,NW,311,0.0,0.0,86,0.00,,,0.00,meteobridge,2013-09-08 10:29:00,
2013-09-08 06:35:00,59.7,55.8,29.81,WNW,300,0.9,0.9,87,0.00,,,0.00,meteobridge,2013-09-08 10:35:00,
2013-09-08 06:41:00,59.7,56.1,29.81,ENE,71,0.0,2.0,88,0.00,,,0.00,meteobridge,2013-09-08 10:41:00,
2013-09-08 06:49:00,59.7,56.1,29.82,NNW,342,0.0,0.9,88,0.00,,,0.00,meteobridge,2013-09-08 10:49:00,
2013-09-08 06:55:00,60.1,56.5,29.82,North,4,0.0,0.0,88,0.00,,,0.00,meteobridge,2013-09-08 10:55:00,
2013-09-08 07:02:00,60.1,56.5,29.82,NNW,330,0.0,0.0,88,0.00,,,0.00,meteobridge,2013-09-08 11:02:00,
2013-09-08 07:08:00,60.3,56.7,29.83,NW,319,0.0,0.9,88,0.00,,,0.00,meteobridge,2013-09-08 11:08:00,
2013-09-08 07:14:00,60.4,56.8,29.82,NW,319,0.0,0.0,88,0.00,,,0.00,meteobridge,2013-09-08 11:14:00,
2013-09-08 07:20:00,60.6,57.0,29.82,NNW,335,0.0,0.9,88,0.00,,,0.00,meteobridge,2013-09-08 11:20:00,
2013-09-08 07:34:00,61.2,57.2,29.83,WNW,283,0.0,0.9,87,0.00,,,0.00,meteobridge,2013-09-08 11:34:00,
2013-09-08 07:40:00,61.3,57.4,29.82,North,355,0.0,2.0,87,0.00,,,0.00,meteobridge,2013-09-08 11:40:00,
2013-09-08 07:46:00,61.5,57.4,29.82,West,277,0.0,2.0,86,0.00,,,0.00,meteobridge,2013-09-08 11:46:00,
2013-09-08 07:53:00,61.9,57.9,29.81,WNW,284,0.9,4.0,87,0.00,,,0.00,meteobridge,2013-09-08 11:53:00,
2013-09-08 07:59:00,62.1,57.7,29.82,NNW,340,0.9,0.9,86,0.00,,,0.00,meteobridge,2013-09-08 11:59:00,
2013-09-08 08:05:00,62.4,58.1,29.81,NNW,348,0.0,2.0,86,0.00,,,0.00,meteobridge,2013-09-08 12:05:00,
2013-09-08 08:12:00,62.8,58.5,29.81,West,259,0.0,0.9,86,0.00,,,0.00,meteobridge,2013-09-08 12:12:00,
2013-09-08 08:18:00,63.0,58.6,29.81,WSW,257,0.0,4.9,86,0.00,,,0.00,meteobridge,2013-09-08 12:18:00,
2013-09-08 08:24:00,63.1,58.8,29.81,WNW,301,0.0,4.0,86,0.00,,,0.00,meteobridge,2013-09-08 12:24:00,
2013-09-08 08:30:00,63.3,59.0,29.81,West,278,0.0,2.9,86,0.00,,,0.00,meteobridge,2013-09-08 12:30:00,
2013-09-08 08:39:00,63.9,59.5,29.82,ENE,75,0.0,0.0,86,0.00,,,0.00,meteobridge,2013-09-08 12:39:00,
2013-09-08 08:45:00,64.0,59.4,29.81,NW,326,0.0,2.9,85,0.00,,,0.00,meteobridge,2013-09-08 12:45:00,
2013-09-08 08:51:00,64.6,59.9,29.82,West,267,0.0,0.9,85,0.00,,,0.00,meteobridge,2013-09-08 12:51:00,
2013-09-08 08:59:00,65.1,60.1,29.81,NW,318,0.0,0.0,84,0.00,,,0.00,meteobridge,2013-09-08 12:59:00,
2013-09-08 09:06:00,65.7,60.6,29.82,NW,307,0.0,2.9,84,0.00,,,0.00,meteobridge,2013-09-08 13:06:00,
2013-09-08 09:12:00,66.2,61.2,29.82,North,358,0.0,2.9,84,0.00,,,0.00,meteobridge,2013-09-08 13:12:00,
2013-09-08 09:18:00,66.7,61.3,29.82,WNW,294,0.0,0.9,83,0.00,,,0.00,meteobridge,2013-09-08 13:18:00,
2013-09-08 09:24:00,67.5,62.1,29.82,NW,312,0.0,2.0,83,0.00,,,0.00,meteobridge,2013-09-08 13:24:00,
2013-09-08 09:30:00,67.6,61.5,29.82,WSW,242,0.9,4.0,81,0.00,,,0.00,meteobridge,2013-09-08 13:30:00,
2013-09-08 09:36:00,68.2,62.4,29.82,East,79,0.0,0.9,82,0.00,,,0.00,meteobridge,2013-09-08 13:36:00,
2013-09-08 09:43:00,68.5,62.4,29.82,South,177,0.0,8.1,81,0.00,,,0.00,meteobridge,2013-09-08 13:43:00,
2013-09-08 09:49:00,69.1,62.2,29.82,West,274,2.0,6.0,79,0.00,,,0.00,meteobridge,2013-09-08 13:49:00,
2013-09-08 09:55:00,69.6,62.8,29.82,West,269,0.9,2.9,79,0.00,,,0.00,meteobridge,2013-09-08 13:55:00,
2013-09-08 10:01:00,70.2,63.0,29.82,NNE,14,4.0,4.9,78,0.00,,,0.00,meteobridge,2013-09-08 14:01:00,
2013-09-08 10:07:00,70.5,63.3,29.82,West,280,0.9,6.9,78,0.00,,,0.00,meteobridge,2013-09-08 14:07:00,
2013-09-08 10:13:00,71.1,63.5,29.82,North,356,0.9,2.9,77,0.00,,,0.00,meteobridge,2013-09-08 14:13:00,
2013-09-08 10:19:00,71.2,63.7,29.82,West,264,0.9,6.0,77,0.00,,,0.00,meteobridge,2013-09-08 14:19:00,
2013-09-08 10:25:00,71.8,63.9,29.83,NE,37,2.9,4.0,76,0.00,,,0.00,meteobridge,2013-09-08 14:25:00,
2013-09-08 10:32:00,71.2,63.3,29.82,East,93,0.9,2.9,76,0.00,,,0.00,meteobridge,2013-09-08 14:32:00,
2013-09-08 10:38:00,71.1,63.5,29.82,WNW,301,0.0,0.9,77,0.00,,,0.00,meteobridge,2013-09-08 14:38:00,
2013-09-08 10:44:00,71.1,63.9,29.82,NNE,13,2.0,4.9,78,0.00,,,0.00,meteobridge,2013-09-08 14:44:00,
2013-09-08 10:50:00,70.9,63.7,29.82,ENE,64,0.0,2.0,78,0.00,,,0.00,meteobridge,2013-09-08 14:50:00,
2013-09-08 10:56:00,70.9,64.0,29.82,West,259,2.9,2.9,79,0.00,,,0.00,meteobridge,2013-09-08 14:56:00,
2013-09-08 11:02:00,71.1,64.2,29.81,NE,51,0.0,2.9,79,0.00,,,0.00,meteobridge,2013-09-08 15:02:00,
2013-09-08 11:08:00,71.2,64.4,29.81,ESE,117,0.9,8.9,79,0.00,,,0.00,meteobridge,2013-09-08 15:08:00,
2013-09-08 11:15:00,71.6,64.4,29.81,NW,307,2.9,8.9,78,0.00,,,0.00,meteobridge,2013-09-08 15:15:00,
2013-09-08 11:21:00,72.1,64.6,29.81,West,262,0.0,4.0,77,0.00,,,0.00,meteobridge,2013-09-08 15:21:00,
2013-09-08 11:29:00,72.9,65.3,29.82,SSW,210,0.9,4.9,77,0.00,,,0.00,meteobridge,2013-09-08 15:29:00,
2013-09-08 11:35:00,73.2,65.1,29.82,NW,325,2.0,4.9,76,0.00,,,0.00,meteobridge,2013-09-08 15:35:00,
2013-09-08 11:41:00,73.4,65.7,29.82,ESE,114,0.9,2.0,77,0.00,,,0.00,meteobridge,2013-09-08 15:41:00,
2013-09-08 11:49:00,74.1,65.7,29.82,WSW,239,0.0,4.0,75,0.00,,,0.00,meteobridge,2013-09-08 15:49:00,
2013-09-08 11:55:00,73.6,64.8,29.82,NE,51,0.0,4.9,74,0.00,,,0.00,meteobridge,2013-09-08 15:55:00,
2013-09-08 12:02:00,72.7,64.2,29.82,SW,217,0.9,11.0,75,0.00,,,0.00,meteobridge,2013-09-08 16:02:00,
2013-09-08 12:08:00,72.7,64.2,29.82,NW,307,2.0,4.9,75,0.00,,,0.00,meteobridge,2013-09-08 16:08:00,
2013-09-08 12:14:00,73.2,64.4,29.82,NNW,334,0.9,4.0,74,0.00,,,0.00,meteobridge,2013-09-08 16:14:00,
2013-09-08 12:20:00,72.9,64.4,29.82,North,3,0.9,8.1,75,0.00,,,0.00,meteobridge,2013-09-08 16:20:00,
2013-09-08 12:28:00,72.9,63.7,29.83,ENE,76,2.0,4.9,73,0.00,,,0.00,meteobridge,2013-09-08 16:28:00,
2013-09-08 12:35:00,72.3,63.1,29.83,East,91,2.0,8.1,73,0.00,,,0.00,meteobridge,2013-09-08 16:35:00,
2013-09-08 12:41:00,72.0,63.1,29.82,West,278,0.0,6.0,74,0.00,,,0.00,meteobridge,2013-09-08 16:41:00,
2013-09-08 12:49:00,73.2,63.7,29.82,WNW,285,0.9,4.0,72,0.00,,,0.00,meteobridge,2013-09-08 16:49:00,
2013-09-08 12:55:00,73.9,63.5,29.83,SE,132,0.0,8.1,70,0.00,,,0.00,meteobridge,2013-09-08 16:55:00,
2013-09-08 13:01:00,73.4,63.0,29.82,NNW,341,0.0,2.0,70,0.00,,,0.00,meteobridge,2013-09-08 17:01:00,
2013-09-08 13:09:00,73.6,64.0,29.83,ENE,75,0.9,4.0,72,0.00,,,0.00,meteobridge,2013-09-08 17:09:00,
2013-09-08 13:15:00,73.9,63.1,29.82,East,84,0.9,6.0,69,0.00,,,0.00,meteobridge,2013-09-08 17:15:00,
2013-09-08 13:21:00,74.7,63.3,29.82,ENE,75,0.9,2.9,68,0.00,,,0.00,meteobridge,2013-09-08 17:21:00,
2013-09-08 13:30:00,75.6,63.0,29.82,ESE,114,0.0,4.9,65,0.00,,,0.00,meteobridge,2013-09-08 17:30:00,
2013-09-08 13:36:00,75.6,63.0,29.82,ENE,65,2.0,8.9,65,0.00,,,0.00,meteobridge,2013-09-08 17:36:00,
2013-09-08 13:42:00,75.6,62.6,29.82,West,280,2.0,6.9,64,0.00,,,0.00,meteobridge,2013-09-08 17:42:00,
2013-09-08 13:48:00,75.6,63.3,29.83,NNE,22,4.0,6.9,66,0.00,,,0.00,meteobridge,2013-09-08 17:48:00,
2013-09-08 13:54:00,75.6,63.0,29.83,NNW,329,0.9,4.9,65,0.00,,,0.00,meteobridge,2013-09-08 17:54:00,
2013-09-08 14:00:00,75.4,62.4,29.83,North,4,2.0,6.0,64,0.00,,,0.00,meteobridge,2013-09-08 18:00:00,
2013-09-08 14:07:00,75.4,62.4,29.82,ESE,115,0.9,6.9,64,0.00,,,0.00,meteobridge,2013-09-08 18:07:00,
2013-09-08 14:13:00,75.7,61.9,29.83,East,82,0.9,6.9,62,0.00,,,0.00,meteobridge,2013-09-08 18:13:00,
2013-09-08 14:19:00,76.3,62.8,29.83,East,98,0.9,2.0,63,0.00,,,0.00,meteobridge,2013-09-08 18:19:00,
2013-09-08 14:25:00,77.2,62.2,29.83,SW,222,2.0,4.0,60,0.00,,,0.00,meteobridge,2013-09-08 18:25:00,
2013-09-08 14:31:00,77.9,61.9,29.83,SE,132,0.9,6.9,58,0.00,,,0.00,meteobridge,2013-09-08 18:31:00,
2013-09-08 14:37:00,78.4,62.4,29.83,ESE,109,2.0,4.9,58,0.00,,,0.00,meteobridge,2013-09-08 18:37:00,
2013-09-08 14:43:00,77.7,61.7,29.83,ENE,60,0.9,6.0,58,0.00,,,0.00,meteobridge,2013-09-08 18:43:00,
2013-09-08 14:49:00,77.4,61.9,29.84,ENE,73,0.0,8.1,59,0.00,,,0.00,meteobridge,2013-09-08 18:49:00,
2013-09-08 14:55:00,77.5,61.5,29.84,ESE,111,2.9,8.1,58,0.00,,,0.00,meteobridge,2013-09-08 18:55:00,
2013-09-08 15:02:00,77.0,60.1,29.83,NW,321,2.0,11.0,56,0.00,,,0.00,meteobridge,2013-09-08 19:02:00,
2013-09-08 15:10:00,76.3,59.0,29.84,ENE,63,2.9,6.0,55,0.00,,,0.00,meteobridge,2013-09-08 19:10:00,
2013-09-08 15:16:00,76.6,59.7,29.84,NE,56,0.9,4.9,56,0.00,,,0.00,meteobridge,2013-09-08 19:16:00,
2013-09-08 15:26:00,76.6,59.2,29.84,WNW,295,0.9,2.9,55,0.00,,,0.00,meteobridge,2013-09-08 19:26:00,
2013-09-08 15:32:00,76.3,59.0,29.84,ESE,107,0.0,4.0,55,0.00,,,0.00,meteobridge,2013-09-08 19:32:00,
2013-09-08 15:38:00,75.4,58.6,29.84,NE,47,2.0,2.9,56,0.00,,,0.00,meteobridge,2013-09-08 19:38:00,
2013-09-08 15:45:00,75.4,58.6,29.84,NW,304,4.0,8.9,56,0.00,,,0.00,meteobridge,2013-09-08 19:45:00,
2013-09-08 15:51:00,75.7,57.4,29.85,NNE,30,0.9,8.9,53,0.00,,,0.00,meteobridge,2013-09-08 19:51:00,
2013-09-08 15:59:00,76.1,58.8,29.85,SE,139,0.9,2.0,55,0.00,,,0.00,meteobridge,2013-09-08 19:59:00,
2013-09-08 16:05:00,75.9,58.1,29.85,East,83,2.0,2.0,54,0.00,,,0.00,meteobridge,2013-09-08 20:05:00,
2013-09-08 16:11:00,75.6,58.3,29.85,ENE,59,0.9,2.9,55,0.00,,,0.00,meteobridge,2013-09-08 20:11:00,
2013-09-08 16:19:00,75.6,56.7,29.85,SW,228,0.0,2.9,52,0.00,,,0.00,meteobridge,2013-09-08 20:19:00,
2013-09-08 16:26:00,75.4,57.0,29.85,West,274,4.0,4.0,53,0.00,,,0.00,meteobridge,2013-09-08 20:26:00,
2013-09-08 16:32:00,74.8,55.0,29.86,NW,304,4.0,6.9,50,0.00,,,0.00,meteobridge,2013-09-08 20:32:00,
2013-09-08 16:40:00,74.5,54.7,29.86,NW,322,0.0,2.9,50,0.00,,,0.00,meteobridge,2013-09-08 20:40:00,
2013-09-08 16:46:00,74.5,54.1,29.86,East,84,2.0,4.9,49,0.00,,,0.00,meteobridge,2013-09-08 20:46:00,
2013-09-08 16:52:00,74.3,54.5,29.86,NW,314,0.9,2.9,50,0.00,,,0.00,meteobridge,2013-09-08 20:52:00,
2013-09-08 16:58:00,74.1,53.2,29.87,East,91,0.9,4.9,48,0.00,,,0.00,meteobridge,2013-09-08 20:58:00,
2013-09-08 17:04:00,73.9,53.1,29.87,ESE,118,0.0,0.9,48,0.00,,,0.00,meteobridge,2013-09-08 21:04:00,
2013-09-08 17:10:00,73.8,52.9,29.87,NE,49,0.9,2.0,48,0.00,,,0.00,meteobridge,2013-09-08 21:10:00,
2013-09-08 17:16:00,73.6,52.2,29.87,East,85,2.0,2.9,47,0.00,,,0.00,meteobridge,2013-09-08 21:16:00,
2013-09-08 17:23:00,73.2,52.3,29.88,ESE,111,0.0,2.0,48,0.00,,,0.00,meteobridge,2013-09-08 21:23:00,
2013-09-08 17:29:00,72.9,50.9,29.88,NE,42,2.0,4.9,46,0.00,,,0.00,meteobridge,2013-09-08 21:29:00,
2013-09-08 17:35:00,72.5,49.3,29.88,WSW,252,0.0,0.9,44,0.00,,,0.00,meteobridge,2013-09-08 21:35:00,
2013-09-08 17:42:00,72.7,50.2,29.88,West,276,0.9,6.0,45,0.00,,,0.00,meteobridge,2013-09-08 21:42:00,
2013-09-08 17:50:00,72.3,50.9,29.89,West,266,0.0,0.9,47,0.00,,,0.00,meteobridge,2013-09-08 21:50:00,
2013-09-08 17:56:00,72.1,49.1,29.90,SW,225,0.9,0.9,44,0.00,,,0.00,meteobridge,2013-09-08 21:56:00,
2013-09-08 18:02:00,72.1,48.4,29.91,North,356,0.0,0.9,43,0.00,,,0.00,meteobridge,2013-09-08 22:02:00,
2013-09-08 18:09:00,72.0,48.2,29.91,East,100,0.0,0.9,43,0.00,,,0.00,meteobridge,2013-09-08 22:09:00,
2013-09-08 18:15:00,71.1,48.0,29.91,ESE,103,0.0,0.0,44,0.00,,,0.00,meteobridge,2013-09-08 22:15:00,
2013-09-08 18:21:00,70.0,47.1,29.91,West,281,0.9,4.0,44,0.00,,,0.00,meteobridge,2013-09-08 22:21:00,
2013-09-08 18:27:00,69.1,48.0,29.92,NNW,334,0.0,0.0,47,0.00,,,0.00,meteobridge,2013-09-08 22:27:00,
2013-09-08 18:33:00,68.4,47.8,29.92,ESE,108,0.0,0.9,48,0.00,,,0.00,meteobridge,2013-09-08 22:33:00,
2013-09-08 18:40:00,67.5,47.7,29.92,NW,314,0.0,0.0,49,0.00,,,0.00,meteobridge,2013-09-08 22:40:00,
2013-09-08 18:46:00,66.7,46.9,29.92,WNW,285,0.9,0.9,49,0.00,,,0.00,meteobridge,2013-09-08 22:46:00,
2013-09-08 18:52:00,66.0,46.8,29.92,NNE,12,0.0,0.9,50,0.00,,,0.00,meteobridge,2013-09-08 22:52:00,
2013-09-08 18:58:00,65.7,46.0,29.93,ESE,114,0.0,2.0,49,0.00,,,0.00,meteobridge,2013-09-08 22:58:00,
2013-09-08 19:05:00,65.1,45.5,29.93,East,84,0.9,0.9,49,0.00,,,0.00,meteobridge,2013-09-08 23:05:00,
2013-09-08 19:11:00,64.8,46.2,29.93,NE,53,0.0,0.9,51,0.00,,,0.00,meteobridge,2013-09-08 23:11:00,
2013-09-08 19:17:00,64.2,45.1,29.94,ENE,68,0.0,0.0,50,0.00,,,0.00,meteobridge,2013-09-08 23:17:00,
2013-09-08 19:23:00,63.9,45.9,29.94,ENE,63,0.0,0.0,52,0.00,,,0.00,meteobridge,2013-09-08 23:23:00,
2013-09-08 19:30:00,63.1,46.8,29.95,ENE,65,0.0,0.0,55,0.00,,,0.00,meteobridge,2013-09-08 23:30:00,
2013-09-08 19:37:00,62.6,46.8,29.95,NNE,30,0.0,0.0,56,0.00,,,0.00,meteobridge,2013-09-08 23:37:00,
2013-09-08 19:43:00,62.1,46.6,29.95,NNE,30,0.0,0.0,57,0.00,,,0.00,meteobridge,2013-09-08 23:43:00,
2013-09-08 19:49:00,61.5,46.2,29.95,NNE,30,0.0,0.0,57,0.00,,,0.00,meteobridge,2013-09-08 23:49:00,
2013-09-08 19:55:00,61.2,47.1,29.96,NNE,30,0.0,0.0,60,0.00,,,0.00,meteobridge,2013-09-08 23:55:00,
2013-09-08 20:02:00,60.6,47.1,29.96,NNW,335,0.0,0.9,61,0.00,,,0.00,meteobridge,2013-09-09 00:02:00,
2013-09-08 20:08:00,60.6,47.1,29.96,WSW,249,0.0,2.0,61,0.00,,,0.00,meteobridge,2013-09-09 00:08:00,
2013-09-08 20:14:00,60.6,47.1,29.97,North,6,0.0,0.0,61,0.00,,,0.00,meteobridge,2013-09-09 00:14:00,
2013-09-08 20:20:00,60.4,46.4,29.97,ESE,105,0.0,0.9,60,0.00,,,0.00,meteobridge,2013-09-09 00:20:00,
2013-09-08 20:27:00,60.3,47.1,29.98,ESE,105,0.0,0.0,62,0.00,,,0.00,meteobridge,2013-09-09 00:27:00,
2013-09-08 20:33:00,60.1,47.8,29.98,ENE,76,0.0,0.0,64,0.00,,,0.00,meteobridge,2013-09-09 00:33:00,
2013-09-08 20:39:00,59.5,47.3,29.98,NW,312,0.0,0.0,64,0.00,,,0.00,meteobridge,2013-09-09 00:39:00,
2013-09-08 20:46:00,59.2,47.8,29.99,North,0,0.0,0.0,66,0.00,,,0.00,meteobridge,2013-09-09 00:46:00,
2013-09-08 20:52:00,58.6,47.7,29.99,WNW,297,0.0,0.9,67,0.00,,,0.00,meteobridge,2013-09-09 00:52:00,
2013-09-08 20:59:00,58.6,47.3,30.00,East,82,0.0,0.9,66,0.00,,,0.00,meteobridge,2013-09-09 00:59:00,
2013-09-08 21:05:00,58.5,47.1,30.00,East,82,0.0,0.9,66,0.00,,,0.00,meteobridge,2013-09-09 01:05:00,
2013-09-08 21:11:00,58.3,47.8,30.00,NE,49,0.0,0.9,68,0.00,,,0.00,meteobridge,2013-09-09 01:11:00,
2013-09-08 21:18:00,57.7,48.0,30.00,North,4,0.0,0.9,70,0.00,,,0.00,meteobridge,2013-09-09 01:18:00,
2013-09-08 21:24:00,57.6,48.2,30.01,ESE,115,0.0,0.9,71,0.00,,,0.00,meteobridge,2013-09-09 01:24:00,
2013-09-08 21:30:00,57.6,47.1,30.01,SSE,163,0.0,0.0,68,0.00,,,0.00,meteobridge,2013-09-09 01:30:00,
2013-09-08 21:39:00,57.4,47.3,30.01,East,86,0.0,0.0,69,0.00,,,0.00,meteobridge,2013-09-09 01:39:00,
2013-09-08 21:45:00,57.2,47.1,30.02,North,11,0.0,0.0,69,0.00,,,0.00,meteobridge,2013-09-09 01:45:00,
2013-09-08 21:51:00,57.0,46.9,30.02,SE,135,0.0,0.0,69,0.00,,,0.00,meteobridge,2013-09-09 01:51:00,
2013-09-08 21:59:00,56.7,46.9,30.03,SE,134,0.0,0.0,70,0.00,,,0.00,meteobridge,2013-09-09 01:59:00,
2013-09-08 22:06:00,56.1,46.8,30.03,NNE,33,0.0,0.0,71,0.00,,,0.00,meteobridge,2013-09-09 02:06:00,
2013-09-08 22:12:00,55.8,46.9,30.03,NNE,26,0.0,2.0,72,0.00,,,0.00,meteobridge,2013-09-09 02:12:00,
2013-09-08 22:18:00,55.6,47.5,30.03,NNE,26,0.0,2.0,74,0.00,,,0.00,meteobridge,2013-09-09 02:18:00,
2013-09-08 22:25:00,55.4,46.9,30.03,West,271,0.0,0.9,73,0.00,,,0.00,meteobridge,2013-09-09 02:25:00,
2013-09-08 22:31:00,55.6,47.1,30.03,ENE,66,0.0,0.0,73,0.00,,,0.00,meteobridge,2013-09-09 02:31:00,
2013-09-08 22:37:00,55.8,46.9,30.03,East,81,0.0,0.0,72,0.00,,,0.00,meteobridge,2013-09-09 02:37:00,
2013-09-08 22:44:00,55.6,46.8,30.03,WSW,243,2.9,2.9,72,0.00,,,0.00,meteobridge,2013-09-09 02:44:00,
2013-09-08 22:50:00,55.2,46.4,30.04,SW,236,0.0,0.0,72,0.00,,,0.00,meteobridge,2013-09-09 02:50:00,
2013-09-08 22:56:00,55.0,46.2,30.03,East,93,0.0,0.0,72,0.00,,,0.00,meteobridge,2013-09-09 02:56:00,
2013-09-08 23:02:00,54.7,46.6,30.04,North,6,0.0,0.0,74,0.00,,,0.00,meteobridge,2013-09-09 03:02:00,
2013-09-08 23:09:00,54.5,46.0,30.04,West,271,0.0,0.9,73,0.00,,,0.00,meteobridge,2013-09-09 03:09:00,
2013-09-08 23:15:00,54.1,46.0,30.04,North,359,0.0,0.9,74,0.00,,,0.00,meteobridge,2013-09-09 03:15:00,
2013-09-08 23:21:00,54.0,46.2,30.04,NNE,16,0.0,0.0,75,0.00,,,0.00,meteobridge,2013-09-09 03:21:00,
2013-09-08 23:28:00,53.8,46.0,30.04,North,359,0.0,0.9,75,0.00,,,0.00,meteobridge,2013-09-09 03:28:00,
2013-09-08 23:34:00,53.4,46.0,30.05,NE,44,0.0,0.0,76,0.00,,,0.00,meteobridge,2013-09-09 03:34:00,
2013-09-08 23:41:00,53.4,46.0,30.05,WNW,297,0.0,0.0,76,0.00,,,0.00,meteobridge,2013-09-09 03:41:00,
2013-09-08 23:47:00,53.2,45.5,30.05,WNW,297,0.0,0.0,75,0.00,,,0.00,meteobridge,2013-09-09 03:47:00,
2013-09-08 23:53:00,53.1,45.7,30.05,WNW,297,0.0,0.0,76,0.00,,,0.00,meteobridge,2013-09-09 03:53:00,